Weather Service Report


696 
ASUS44 KLUB 282301
RWRTX 
WEST TEXAS WEATHER ROUNDUP
NATIONAL WEATHER SERVICE LUBBOCK TX
600 PM CDT WED SEP 28 2016

NOTE: "FAIR" INDICATES FEW OR NO CLOUDS BELOW 12,000 FEET WITH NO
SIGNIFICANT WEATHER AND/OR OBSTRUCTIONS TO VISIBILITY.

TXZ004-006>008-010-012-014-016-OKZ002-290000-
TEXAS PANHANDLE/OKLAHOMA PANHANDLE
  
CITY           SKY/WX    TMP DP  RH WIND       PRES   REMARKS
AMARILLO       SUNNY     84  37  18 E7        30.20R                  
BORGER         SUNNY     88  34  14 E6        30.17S                  
CANADIAN       SUNNY     86  48  26 SE9       30.14R                  
DALHART        SUNNY     86  29  12 E10       30.23R                  
DUMAS          SUNNY     86  31  14 E8        30.20S                  
GUYMON         SUNNY     87  37  17 E12       30.17R                  
HEREFORD       SUNNY     85  36  17 E8        30.21R                  
PERRYTON       SUNNY     87  41  19 E12       30.16R                  
$$

TXZ026-029-035-045-048-290000-
SOUTHERN PANHANDLE/SOUTH PLAINS/ROLLING PLAINS
  
CITY           SKY/WX    TMP DP  RH WIND       PRES   REMARKS
CHILDRESS      SUNNY     89  41  18 E5        30.11R                  
SEMINOLE       SUNNY     81  42  25 CALM      30.19S                  
LUBBOCK        PTSUNNY   86  41  20 NE7       30.16R                  
PLAINVIEW      SUNNY     82  45  27 E5        30.16S                  
SNYDER           N/A     84  44  24 CALM      30.13S                  
$$

TXZ052-054-060>062-072-078-127-140-154-169-290000-
PERMIAN BASIN/CONCHO VALLEY/BIG COUNTRY/EDWARDS PLATEAU  
  
CITY           SKY/WX    TMP DP  RH WIND       PRES   REMARKS
ABILENE        SUNNY     84  45  25 E3        30.11R                  
BIG SPRING     MOSUNNY   83  45  26 CALM      30.16S                  
BROWNWOOD      LGT RAIN  84  45  24 SW3       30.08S                  
JUNCTION       SUNNY     86  57  37 W5        30.08S                  
MIDLAND        SUNNY     87  43  21 CALM      30.14S                  
ODESSA         SUNNY     85  45  24 NE5       30.16S                  
SAN ANGELO     SUNNY     85  49  28 NE6       30.09F                  
SONORA         SUNNY     84  55  37 CALM      30.14S                  
SWEETWATER     SUNNY     84  44  24 E3        30.15R                  
WINK           SUNNY     84  54  35 MISG      30.12F                  
$$

TXZ055-058-074-075-080-082-290000-
FAR WEST/SOUTHWEST MOUNTAINS/TRANS PECOS
  
CITY           SKY/WX    TMP DP  RH WIND       PRES   REMARKS
ALPINE         MOSUNNY   77  60  56 NE7       30.28S                  
EL PASO        MOSUNNY   84  51  31 VRB5      30.14F                  
FORT STOCKTON  SUNNY     82  59  45 NE6       30.15S                  
GUADALUPE PASS SUNNY     72  51  47 E22       30.28F                  
MARFA          CLOUDY   N/A N/A N/A E9        30.25R                  
PECOS          SUNNY     82  58  43 CALM      30.12S                  
PRESIDIO       FAIR      84  58  40 CALM      30.11S                  
$$

TXZ014-016-019-021>030-083-290000
TEXAS TECH WEST TEXAS MESONET/TEXAS PANHANDLE/NORTHERN SOUTH PLAINS
  
CITY           SKY/WX    TMP DP  RH WIND       PRES   REMARKS
ABERNATHY 5ENE   N/A     83  43  24 E7        30.19S                  
AMARILLO 9NNE    N/A     86  38  18 E10       30.19S                  
AMARILLO 7SSE    N/A     85  34  16 E9        30.22S                  
AMHERST 1NE      N/A     82  41  23 E8        30.20S                  
BOOTLEG 11WNW    N/A     82  39  21 E6        30.26S                  
CANADIAN 6E      N/A     85  50  29 E10       30.14R                  
CAPROCK CYN SP   N/A     85  37  18 E9        30.15S                  
CHILDRESS 2NNE   N/A     89  42  19 NE6       30.11R                  
CLARENDON 2WSW   N/A     86  42  21 E9        30.16S                  
CLAUDE 12SW      N/A     84  38  19 NE7       30.20S                  
DIMMITT 2NE      N/A     82  38  20 E9        30.21R                  
FLOYDADA 2NNE    N/A     84  35  17 E8        30.17R                  
FRIONA 2NE       N/A     83  37  19 SE7       30.22S                  
GOODLETT 3W      N/A     89  41  18 E6        30.08R                  
HART 3N          N/A     83  39  20 NE6       30.20S                  
HEREFORD 2NW     N/A     84  33  15 E7        30.23R                  
MCLEAN 1E        N/A     85  44  23 E10       30.16R                  
MEMPHIS 1NE      N/A     89  42  19 E6        30.12R                  
MULESHOE 2SSW    N/A     83  39  20 E7        30.22R                  
OLTON 6S         N/A     83  41  22 E3        30.20R                  
PALO DURO SP     N/A     86  35  16 E8        30.21S                  
PAMPA 2E         N/A     85  39  19 NE6       30.20R                  
PLAINVIEW 1S     N/A     83  43  24 E3        30.18S                  
SILVERTON 7ESE   N/A     83  37  19 E7        30.16S                  
TULIA 2ENE       N/A     85  45  24 E8        30.20R                  
TURKEY 2WSW      N/A     87  36  15 NE9       30.14S                  
UMBARGER 3NNE    N/A     84  36  17 E12       30.22R                  
$$

TXZ033>036-039>041-045>048-290000
TEXAS TECH WEST TEXAS MESONET/SOUTH PLAINS  
  
CITY           SKY/WX    TMP DP  RH WIND       PRES   REMARKS
AIKEN 3WSW       N/A     83  44  25 E9        30.19S                  
ANDREWS 2NE      N/A     82  42  24 NE2       30.20S                  
ANTON 6SSW       N/A     82  44  25 NE7       30.19S                  
BROWNFIELD 2S    N/A     81  41  24 NE2       30.19S                  
DENVR CTY 7WNW   N/A     82  38  21 E6        30.20S                  
GAIL 2ESE        N/A     84  43  23 E1        30.14S                  
LAMESA 2SE       N/A     82  46  28 SE5       30.17S                  
LEVELLAND 4S     N/A     81  46  29 E3        30.20R                  
LUBBOCK 3WNW     N/A     83  40  21 NE7       30.18S                  
MORTON 1ENE      N/A     82  44  26 E7        30.21R                  
ODONNELL 1N      N/A     81  42  24 NE3       30.17S                  
PLAINS 3N        N/A     83  38  20 E5        30.21R                  
RALLS 1SE        N/A     85  40  20 SE8       30.17S                  
REESE CENTER     N/A     83  39  20 E8        30.19R                  
SEAGRAVES 1SW    N/A     83  41  22 E6        30.19S                  
SEMINOLE 2NNE    N/A     82  39  21 E3        30.18S                  
SLATON 2NE       N/A     82  45  26 E3        30.17S                  
SNYDER 3E        N/A     85  46  25 S6        30.13R                  
SUNDOWN 8SW      N/A     83  40  22 E7        30.20S                  
TAHOKA 3NNE      N/A     80  50  34 SE3       30.18R                  
WOLFFORTH 6SSW   N/A     83  45  26 SE6       30.18S                  
$$

TXZ031-032-036>038-042>044-290000-
TEXAS TECH WEST TEXAS MESONET/ROLLING PLAINS 
  
CITY           SKY/WX    TMP DP  RH WIND       PRES   REMARKS
ASPERMONT 3NE    N/A     87  47  24 SE6       30.11R                  
FLUVANNA 3WNW    N/A     83  43  24 E3        30.15S                  
GRAHAM 5SSW      N/A     84  42  23 SE5       30.16R                  
GUTHRIE 10WSW    N/A     86  47  25 SE6       30.11R                  
HASKELL 1NW      N/A     85  45  24 SE3       30.10R                  
JAYTON 1SSE      N/A     87  45  23 E2        30.11R                  
KNOX CITY 3NW    N/A     88  44  21 SE7       30.09R                  
LK A HENRY 1NW   N/A     83  46  27 E6        30.13R                  
NORTHFIELD 1S    N/A     88  43  20 NE7       30.11S                  
ODELL 4ENE       N/A     88  54  31 N12       30.08S                  
PADUCAH 10SW     N/A     87  43  21 SE8       30.11R                  
POST 1NE         N/A     85  43  23 SE3       30.14R                  
RRING SPRGS 3N   N/A     87  42  20 NE8       30.14S                  
SEYMOUR 3NW      N/A     88  50  27 S3        30.08R                  
SPUR 1W          N/A     85  43  22 SE6       30.13R                  
WHITE RVR 6NE    N/A     86  42  21 SE7       30.14S                  
$$

TXZ052-054-060>062-072-078-127-140-154-169-290000-
TEXAS TECH WEST TEXAS MESONET/PERMIAN BASIN/
CONCHO VALLEY/BIG COUNTRY/EDWARDS PLATEAU
  
CITY           SKY/WX    TMP DP  RH WIND       PRES   REMARKS
COYANOSA 2N      N/A     84  57  39 NE1       30.14S                  
JUNCTION 1SSW    N/A     85  59  40 N5        30.09S                  
MERTZON 3NNE     N/A     83  53  35 NE2       30.13S                  
SAN ANGELO 7NW   N/A     84  49  29 SE2       30.11S                  
STRLNG CT 4WSW   N/A     85  48  27 S1        30.14S                  
ST LAWRNCE 5SW   N/A     81  43  26 SE3       30.16R                  
WALL 1E          N/A     83  52  34 CALM      30.13S                  
$$

TXZ055-058-074-075-080-082-290000-
TEXAS TECH WEST TEXAS MESONET/FAR WEST/SOUTHWEST MOUNTAINS/TRANS PECOS
  
CITY           SKY/WX    TMP DP  RH WIND       PRES   REMARKS
PRSMN GAP BBNP   N/A     83  58  42 CALM      30.13S                  
GUADLPE MTN NP   N/A     72  50  45 E9        30.31S                  
$$
  

Return to Home page


Western Regional Climate Center, wrcc@dri.edu